Temp
11 10 10 11 11 11 11 10 10 11 13 12 12 13 14 14 14 13 15 16 15 15 17 18 20 20 20 20 20 20 19 18 18 17 16 15 15 15 15 16 15 15 15 15
10 10 10 11 10 10 10 11 12 13 12 12 13 13 14 14 15 15 15 16 16 16 15 15 17 17 18 19 19 19 18 17 17 16 16 15 14 13 14 14 14 14 14 14
10 11 11 11 10 10 10 10 11 11 12 12 11 13 15 16 16 16 16 16 17 17 16 14 13 16 17 17 18 18 17 16 16 16 15 14 13 12 12 12 12 12 13 13
9 11 11 10 10 10 11 11 11 11 10 10 11 12 15 15 15 15 16 15 16 16 15 14 13 13 15 16 17 17 16 15 15 15 15 15 13 11 10 11 11 11 12 12
11 9 9 10 11 11 11 12 11 11 10 10 11 10 12 14 14 15 13 13 15 15 16 14 13 15 15 15 15 15 15 14 14 14 14 14 11 11 11 10 10 11 10 10
11 11 10 10 11 11 12 11 11 11 11 11 12 11 14 15 15 15 14 14 15 15 14 14 14 13 13 14 14 14 14 13 14 14 14 14 13 11 10 10 10 9 9 9
11 10 11 11 10 11 10 10 10 10 11 11 12 11 13 14 15 14 14 14 13 13 12 11 11 11 10 11 12 13 13 12 13 13 13 13 13 12 11 10 10 9 8 8
9 8 10 11 11 11 10 11 9 9 10 11 12 11 14 14 16 16 17 15 14 13 11 11 11 11 11 10 12 12 12 12 13 13 13 13 12 12 11 10 10 9 8 7
9 8 9 9 10 11 10 10 11 10 11 10 13 11 13 15 15 15 13 14 13 12 10 11 11 11 10 10 10 11 11 11 12 12 12 11 11 11 10 9 9 8 7 7
9 6 9 10 10 10 11 12 10 10 10 10 10 10 12 14 15 16 17 16 13 11 10 10 10 9 10 9 10 11 11 11 11 11 11 11 10 10 9 9 8 7 6 6
9 8 9 9 9 11 10 10 10 11 11 9 9 12 13 14 14 14 13 15 11 11 11 10 9 8 8 8 9 9 9 10 10 10 10 9 9 9 8 8 7 6 6 5
10 9 9 10 12 12 12 10 11 10 9 9 8 13 15 12 13 13 12 11 10 10 10 9 8 8 8 7 7 8 8 9 9 9 9 8 8 8 7 7 6 6 5 5
10 9 9 9 11 11 9 10 9 11 10 10 9 12 15 16 15 12 11 10 9 9 8 8 8 8 7 6 6 7 7 8 8 8 8 7 7 7 6 6 5 5 5 4
11 10 10 11 13 12 10 10 9 9 10 11 11 13 15 16 15 13 11 10 10 9 9 9 8 7 6 6 6 6 6 8 8 8 7 7 6 6 6 5 5 4 4 4
11 10 10 10 11 11 11 10 10 10 11 10 13 13 15 14 15 14 11 10 11 10 9 8 7 6 6 5 5 6 6 7 7 7 7 6 6 5 5 5 4 4 3 3
11 11 10 11 12 11 11 11 10 10 11 11 12 13 15 15 13 13 10 10 11 10 10 8 8 6 5 5 5 5 6 7 7 7 6 5 5 5 4 4 4 3 3 2
11 10 11 12 12 12 13 11 11 11 12 12 11 13 15 14 15 13 11 11 11 11 10 9 7 7 6 5 5 5 6 7 7 6 5 5 5 4 4 3 3 3 2 2
11 11 11 12 12 14 14 13 12 11 13 13 13 13 14 14 13 13 12 11 11 11 10 8 7 6 6 5 6 6 6 6 6 5 5 4 4 4 3 3 2 2 2 1
12 12 13 13 13 13 15 12 12 10 12 12 13 14 14 13 11 12 11 11 11 10 9 8 7 6 5 5 6 6 5 6 5 4 4 4 4 3 3 2 2 2 1 0
11 12 12 13 13 13 16 14 12 13 14 13 13 13 12 12 13 13 10 10 9 9 8 6 5 5 5 5 6 5 4 5 4 4 4 3 3 3 2 2 1 1 0 -0
12 12 13 13 13 13 15 14 13 14 16 14 12 13 13 12 11 7 7 7 7 7 6 5 5 5 4 5 6 4 4 4 4 4 3 3 2 2 2 1 0 -0 -1 -1
13 13 13 13 12 13 14 14 15 14 13 13 12 11 12 7 6 6 6 5 5 5 5 4 3 3 4 5 6 3 4 3 3 3 3 2 2 1 1 1 -0 -1 -1 -2
12 12 12 12 12 13 13 14 13 12 12 11 10 8 7 6 5 5 4 4 4 4 3 3 3 2 3 5 6 3 2 3 3 3 2 1 1 1 0 -0 -1 -1 -2 -3
12 11 12 13 14 13 13 13 10 9 8 7 7 6 6 5 4 4 4 3 3 3 3 3 3 2 1 4 4 3 3 3 3 2 1 0 0 -0 -1 -1 -2 -2 -3 -3
11 11 12 12 12 11 12 12 8 7 7 7 6 6 5 5 4 4 3 3 3 3 3 3 2 1 0 3 3 2 3 3 2 1 0 -0 -0 -1 -1 -2 -2 -3 -3 -4
9 12 12 13 14 14 13 9 7 7 7 6 6 5 5 5 4 4 3 3 2 1 1 1 0 -0 0 2 1 2 2 2 2 0 -0 -1 -1 -2 -2 -2 -2 -3 -4 -4
Height
774 781 777 774 779 776 780 783 784 777 770 773 764 752 745 741 741 739 731 728 728 727 723 722 723 722 723 725 726 727 730 735 739 744 750 756 760 769 772 775 779 782 785 786
778 777 774 775 778 780 781 779 773 769 770 769 760 738 737 734 729 727 725 722 721 720 719 718 718 719 719 722 723 726 729 734 737 742 747 753 759 766 770 774 779 782 785 786
775 766 763 770 775 778 780 781 777 773 771 764 764 729 722 711 709 710 709 711 711 711 712 714 715 715 718 719 719 722 727 732 735 740 745 752 760 767 771 775 780 782 785 786
772 764 765 771 773 777 772 769 772 773 780 777 761 733 713 709 706 704 701 702 701 703 704 705 708 711 713 716 719 721 725 731 735 739 743 745 752 762 770 774 778 780 785 786
762 766 769 769 766 770 768 763 768 768 773 777 761 771 712 709 705 699 699 696 692 691 691 696 700 701 707 713 716 721 724 730 735 739 743 747 754 761 767 773 776 780 784 787
755 757 761 764 761 763 761 765 766 767 766 751 738 756 694 702 699 692 690 688 683 682 684 685 691 696 704 711 715 719 723 729 734 739 744 747 752 760 766 772 776 780 784 787
755 756 755 757 760 760 765 772 770 768 755 739 727 740 702 692 692 690 687 683 680 677 679 684 689 694 701 707 713 718 722 728 734 739 745 749 753 758 764 770 775 780 784 787
761 767 753 749 750 751 757 757 768 767 750 739 724 726 690 685 678 674 673 673 673 676 679 681 684 689 695 703 710 716 721 727 733 740 746 750 755 761 766 771 775 780 783 787
759 762 747 747 744 746 753 752 744 752 741 747 717 711 688 679 679 674 674 670 672 674 677 679 683 687 692 700 707 713 720 728 734 741 747 752 758 763 767 772 777 781 784 787
754 772 743 739 745 742 738 735 744 744 735 732 722 719 698 679 676 667 660 660 666 671 675 679 682 688 694 701 706 714 721 727 735 743 749 754 760 765 769 773 778 782 784 787
750 755 748 740 735 725 737 737 735 727 725 738 734 696 678 675 674 670 664 655 660 660 667 674 682 688 693 702 709 715 723 727 737 744 751 755 761 766 771 774 779 782 784 787
740 745 739 729 708 711 709 720 716 717 727 722 730 684 664 672 668 666 662 659 659 663 667 675 682 689 696 702 711 717 725 729 738 745 752 757 762 768 772 776 780 782 784 786
735 740 741 726 712 711 715 710 711 706 711 705 720 675 658 655 662 670 670 671 669 670 676 680 685 692 699 706 712 721 727 731 740 747 754 760 764 770 773 777 780 782 784 785
727 728 728 712 691 696 702 699 703 705 701 689 687 673 660 662 665 670 670 672 674 676 680 684 689 696 702 710 716 724 730 735 743 750 756 761 766 770 774 777 780 782 783 784
725 718 718 703 693 685 683 684 690 693 684 696 666 670 662 664 661 666 669 670 673 677 682 687 693 698 705 713 721 728 733 739 746 752 758 763 767 772 775 778 780 782 783 783
720 711 709 693 680 676 669 669 675 680 681 681 673 666 657 654 659 661 668 669 671 678 682 688 695 701 709 716 723 729 735 742 748 754 760 765 768 772 775 778 780 782 782 783
714 715 706 678 674 670 655 661 663 670 668 666 676 659 658 658 655 657 662 663 667 673 678 688 696 702 711 717 722 729 736 744 750 756 762 765 769 773 776 779 780 781 782 781
707 709 707 685 674 661 651 646 651 661 656 659 660 660 660 659 658 656 653 660 667 674 681 689 698 707 714 719 725 731 739 746 752 759 763 766 770 774 777 779 780 781 781 781
698 700 692 681 676 668 647 656 657 666 656 654 653 652 654 661 661 655 657 659 666 673 680 688 698 705 712 718 725 733 742 748 755 760 764 768 771 774 777 779 779 780 780 780
695 694 693 686 679 674 654 653 655 655 647 640 648 650 655 661 657 653 661 663 669 675 681 690 699 706 712 720 727 735 744 751 756 761 765 769 773 775 777 778 779 780 779 778
687 688 686 686 684 672 657 655 657 661 653 642 646 648 653 656 661 673 668 668 671 676 685 694 701 706 713 721 729 738 746 752 758 763 767 771 774 776 777 778 779 778 777 776
679 681 682 684 685 680 657 658 657 653 649 648 648 651 654 664 670 677 675 675 679 685 693 697 703 712 719 725 732 741 749 755 760 765 769 772 774 776 778 778 777 777 776 774
680 675 678 678 673 659 658 655 653 652 651 653 655 658 662 671 681 686 684 685 687 691 697 702 706 715 724 731 736 743 752 758 763 767 770 773 775 776 777 776 776 776 774 772
673 674 673 670 659 656 655 655 658 657 658 658 658 662 666 674 681 685 687 691 694 698 703 708 713 722 730 736 742 747 755 760 764 767 771 774 775 776 776 776 775 774 773 771
671 672 669 668 659 658 653 656 662 662 662 663 665 667 672 675 682 686 692 696 700 705 710 715 720 728 736 741 748 753 758 762 766 769 772 774 775 775 775 775 774 773 772 771
669 661 665 661 650 651 654 661 665 665 667 669 669 674 678 680 684 690 697 702 706 711 716 722 728 734 741 747 752 758 762 765 767 770 772 774 774 775 774 774 773 773 771 769
Wind_Speed
2 3 8 12 9 9 3 3 6 4 8 7 11 16 17 13 9 11 12 11 11 11 11 15 17 15 14 15 13 12 17 24 30 32 32 29 31 29 27 24 21 17 15 14
0 10 8 7 5 7 8 14 17 12 10 10 13 25 18 17 17 14 15 16 12 10 7 8 11 14 17 18 17 16 19 26 31 32 30 32 35 29 28 24 21 18 16 14
8 4 5 9 7 7 8 13 14 14 6 13 12 27 20 21 23 22 22 20 17 14 12 8 8 19 17 19 21 22 23 26 30 32 33 34 30 29 27 25 23 20 16 14
8 11 12 6 4 8 16 8 13 12 5 7 4 12 9 4 11 14 17 15 15 13 9 8 9 11 21 21 19 22 25 27 29 33 38 43 33 27 21 27 24 21 15 14
6 4 5 13 16 6 5 7 9 8 7 8 12 5 5 4 11 11 9 11 14 15 16 13 12 20 25 22 22 23 25 27 29 33 39 36 29 22 32 29 24 21 17 13
13 4 4 6 4 12 1 7 5 6 5 10 11 12 23 10 10 9 10 11 14 14 13 12 12 19 23 22 24 26 28 28 31 33 34 34 34 37 33 28 24 20 16 13
3 8 6 5 6 6 9 3 3 5 7 9 7 10 23 5 7 8 10 11 10 9 9 10 12 12 20 26 29 30 31 30 30 31 30 31 34 34 32 27 23 19 16 13
3 5 10 9 16 5 13 12 5 5 4 4 5 10 15 12 20 21 19 14 8 5 7 11 14 13 22 26 30 29 32 31 29 28 28 29 30 30 26 22 19 16 14 12
5 5 4 7 6 10 5 12 13 8 7 5 5 8 11 11 16 15 10 10 9 8 9 11 11 17 22 25 27 32 33 31 29 29 30 31 29 27 25 21 18 16 13 11
4 5 8 1 3 9 12 4 5 6 6 7 6 7 11 14 12 15 20 16 8 7 8 9 11 12 18 22 29 32 34 34 32 32 32 31 28 25 23 20 18 14 13 10
4 5 2 5 10 12 7 9 7 4 4 5 3 7 5 7 2 12 14 11 10 14 14 12 11 16 21 25 28 31 34 37 35 33 32 30 27 24 21 19 16 13 11 8
9 3 6 11 12 14 15 15 19 5 5 4 3 14 5 7 8 12 12 6 5 7 11 12 13 17 22 24 26 30 33 37 35 33 31 29 26 22 20 17 14 11 9 7
10 4 5 7 1 5 7 12 14 16 3 14 6 11 7 9 7 8 6 5 6 9 11 12 14 13 16 21 24 28 32 36 35 33 31 27 24 21 18 16 13 10 7 6
12 5 8 11 19 11 7 13 17 16 7 13 18 19 17 15 15 6 3 5 6 8 10 11 12 12 17 20 23 27 31 35 34 31 29 26 22 19 16 14 11 8 6 4
7 7 9 21 26 27 24 12 18 19 26 10 17 18 12 9 10 2 6 7 10 10 11 11 12 12 16 20 23 27 33 34 32 30 26 23 20 18 15 12 10 7 5 5
6 4 4 19 20 19 19 16 17 22 20 22 19 18 12 11 2 4 7 10 12 12 12 12 12 13 12 21 23 27 31 32 30 28 25 22 20 16 13 11 8 5 5 5
3 2 3 11 10 11 5 8 15 14 14 18 15 19 15 15 16 8 6 12 13 14 15 14 14 14 19 22 28 28 32 31 28 26 23 20 18 15 12 9 6 4 5 7
6 3 3 6 7 5 4 5 13 17 12 16 12 14 11 11 10 8 10 13 11 13 13 13 12 16 20 26 28 33 32 29 26 24 22 18 16 13 10 7 5 4 6 8
15 5 4 4 4 6 5 2 4 5 6 16 17 17 16 5 4 3 2 6 10 13 12 12 21 24 27 30 33 34 30 28 25 23 20 17 14 12 9 6 5 6 7 8
8 11 3 4 4 3 3 4 5 3 5 9 15 15 10 3 2 1 5 8 10 13 17 20 24 26 28 28 34 32 29 27 24 21 18 15 12 10 7 5 4 5 7 10
3 3 6 2 3 6 2 3 6 4 3 2 10 13 4 1 1 2 4 10 9 14 21 24 23 23 26 33 33 28 28 25 23 20 18 14 11 9 6 4 4 7 9 12
5 4 3 3 3 3 3 2 2 1 3 2 1 4 8 5 6 4 7 10 12 14 17 21 23 22 26 32 33 27 25 23 22 19 17 13 10 7 4 4 6 8 11 13
3 5 3 6 5 3 2 3 3 4 3 1 3 3 10 12 6 5 8 10 10 11 17 20 24 24 25 28 32 28 25 24 21 18 15 11 8 5 5 5 8 11 12 14
3 3 2 3 2 4 2 1 3 3 3 4 5 9 7 12 9 10 10 10 10 12 15 22 25 22 21 25 26 29 26 22 19 17 13 10 6 4 4 6 9 12 14 15
3 4 3 5 7 5 4 2 3 4 7 9 9 8 11 14 12 11 11 10 10 15 19 21 23 22 24 28 28 24 22 19 18 15 11 7 4 4 6 8 10 12 13 12
4 6 4 5 4 3 1 5 6 6 6 7 12 11 9 10 13 13 11 11 15 17 21 23 24 28 28 29 25 21 17 15 15 13 8 5 4 5 8 11 13 11 11 14
Wind_Direction
165 180 211 215 215 243 301 268 269 305 297 320 266 276 273 272 263 269 273 258 244 243 254 257 262 248 216 206 194 184 185 190 185 172 162 158 154 154 149 149 149 148 145 138
107 245 224 217 206 218 238 264 271 275 252 263 282 277 274 267 259 246 248 258 250 245 238 234 227 210 204 203 191 182 179 179 179 175 166 159 152 149 146 144 142 142 138 131
208 198 197 195 212 227 240 244 262 262 295 276 288 283 271 256 243 242 241 236 247 239 237 223 198 204 203 199 189 185 179 178 178 175 165 153 147 140 136 138 135 132 132 122
248 249 253 213 212 193 256 205 236 253 251 258 155 287 250 285 274 240 246 227 227 224 222 212 193 185 201 199 189 185 180 179 178 174 166 159 152 148 152 144 136 128 125 116
226 192 216 235 238 196 247 188 210 226 237 271 237 274 300 223 266 259 242 229 225 216 211 200 192 195 196 188 181 181 176 177 175 173 167 160 150 153 149 140 132 126 118 109
244 171 173 201 232 216 233 246 283 261 250 246 227 208 277 248 245 234 237 231 226 220 205 197 187 168 171 176 173 172 170 171 172 173 170 170 161 150 143 140 130 123 116 107
240 234 210 194 240 207 199 178 264 240 214 250 171 202 241 245 279 257 258 249 247 225 189 162 157 156 154 166 169 170 170 164 169 173 171 168 160 154 146 142 135 130 120 109
232 305 196 198 214 200 193 194 195 217 216 274 162 227 246 226 237 262 248 247 235 219 179 177 171 164 162 163 165 164 164 160 163 166 165 161 154 147 140 138 133 126 120 113
201 260 211 198 183 192 169 211 218 282 266 280 244 284 296 259 254 266 251 247 237 204 178 175 168 162 159 158 160 161 158 156 158 157 152 148 147 143 137 132 129 124 118 114
231 283 226 197 162 234 229 128 197 197 229 233 234 252 250 306 283 267 257 242 217 176 161 156 154 148 146 147 151 157 159 153 151 149 147 144 142 138 133 130 126 124 118 113
175 184 291 125 209 190 190 220 224 243 203 210 275 255 226 177 299 337 291 250 198 176 171 159 147 135 129 133 142 146 151 147 147 147 144 139 135 133 130 127 125 122 116 112
210 233 242 236 233 213 222 227 218 237 208 223 206 261 165 181 48 3 328 282 143 137 138 136 133 129 133 131 136 141 144 145 147 145 142 136 134 133 130 125 123 119 117 110
168 227 295 299 206 185 222 217 219 223 285 227 215 257 217 255 342 13 23 38 92 116 121 128 131 134 132 130 132 139 144 145 145 144 140 136 133 133 128 125 124 123 116 99
165 210 223 260 272 270 231 218 211 211 231 232 228 259 262 305 309 335 91 131 128 134 139 140 131 130 128 131 132 138 139 147 146 144 140 137 135 133 132 129 126 122 104 75
188 250 230 253 264 270 260 234 206 206 230 223 250 249 275 273 301 257 182 157 155 151 149 148 140 131 128 126 131 138 143 147 148 143 141 137 137 136 133 129 123 106 87 50
214 280 273 278 271 278 278 224 206 211 226 237 253 271 291 294 276 335 196 174 168 166 154 142 138 131 134 140 139 140 145 149 150 145 142 141 138 136 133 127 117 104 66 32
204 251 289 284 328 306 288 208 203 211 217 219 224 248 269 291 290 305 203 177 180 169 155 152 151 146 147 147 145 143 149 152 150 146 144 141 140 136 130 124 111 79 40 14
232 211 237 288 313 347 323 342 209 211 229 224 234 246 243 270 298 293 175 176 167 160 152 144 142 137 140 142 143 150 153 153 150 146 144 144 142 135 129 118 94 56 20 2
208 225 273 286 301 290 312 336 119 176 263 228 238 248 261 300 249 252 125 142 155 157 148 145 149 144 141 146 151 151 153 153 150 147 145 145 144 134 127 112 71 28 360 348
171 214 245 314 308 323 313 353 140 187 330 190 213 247 265 169 348 317 134 125 126 130 136 138 138 138 137 145 153 148 149 153 152 150 144 142 138 132 122 90 46 7 351 347
162 189 225 272 287 290 244 21 145 48 277 316 184 226 210 194 26 326 98 83 106 123 127 130 134 138 141 149 152 142 151 152 150 145 139 135 131 121 104 73 30 0 348 340
180 169 205 188 244 289 20 92 246 239 291 293 266 188 186 118 65 37 72 95 108 115 120 124 120 121 138 150 151 140 143 146 144 140 135 129 123 114 87 40 14 354 347 344
218 187 186 189 219 255 263 252 282 293 266 236 198 134 129 122 139 158 113 103 103 110 115 120 122 119 134 148 151 135 140 143 140 136 131 129 123 94 51 16 358 355 352 346
246 177 218 5 255 254 291 139 356 354 63 34 90 124 127 128 124 111 105 104 105 107 113 120 118 115 113 140 141 138 142 142 140 134 129 122 103 72 30 6 355 348 346 339
202 140 197 265 285 291 269 101 132 72 77 82 75 91 116 121 114 116 110 105 104 107 110 115 115 111 115 130 130 135 139 144 135 128 121 114 91 39 10 356 349 340 339 331
191 189 172 217 221 158 346 119 133 112 104 102 108 93 82 108 113 113 102 105 109 107 108 103 106 114 122 126 127 132 137 140 133 125 116 92 55 20 0 346 337 343 333 325